TimeCST,TemperatureF,Dew PointF,Humidity,Sea Level PressureIn,VisibilityMPH,Wind Direction,Wind SpeedMPH,Gust SpeedMPH,PrecipitationIn,Events,Conditions,WindDirDegrees,DateUTC
12:15 AM,40.6,34.7,79,30.13,10.0,South,3.5,-,N/A,,Clear,170,2013-12-01 06:15:00
12:35 AM,38.8,33.1,80,30.13,10.0,South,3.5,-,N/A,,Clear,170,2013-12-01 06:35:00
12:55 AM,37.9,33.1,83,30.13,10.0,South,4.6,-,N/A,,Clear,180,2013-12-01 06:55:00
1:15 AM,38.3,33.1,81,30.12,10.0,South,3.5,-,N/A,,Clear,180,2013-12-01 07:15:00
1:35 AM,39.0,33.8,82,30.12,10.0,South,3.5,-,N/A,,Clear,180,2013-12-01 07:35:00
1:55 AM,39.6,34.0,80,30.12,10.0,Calm,Calm,-,N/A,,Clear,0,2013-12-01 07:55:00
2:15 AM,39.4,34.3,82,30.12,10.0,Calm,Calm,-,N/A,,Scattered Clouds,0,2013-12-01 08:15:00
2:35 AM,38.3,33.4,83,30.12,10.0,SSW,3.5,-,N/A,,Scattered Clouds,200,2013-12-01 08:35:00
2:55 AM,38.8,34.0,83,30.12,10.0,SSW,3.5,-,N/A,,Clear,200,2013-12-01 08:55:00
3:15 AM,39.4,34.7,83,30.11,10.0,Calm,Calm,-,N/A,,Clear,0,2013-12-01 09:15:00
3:35 AM,39.6,35.1,84,30.10,10.0,Calm,Calm,-,N/A,,Clear,0,2013-12-01 09:35:00
3:55 AM,40.1,35.4,83,30.10,10.0,Calm,Calm,-,N/A,,Mostly Cloudy,0,2013-12-01 09:55:00
4:15 AM,40.5,35.6,83,30.10,10.0,SW,3.5,-,N/A,,Overcast,220,2013-12-01 10:15:00
4:35 AM,42.1,37.8,85,30.10,10.0,SW,3.5,-,N/A,,Overcast,220,2013-12-01 10:35:00
4:55 AM,42.6,37.4,82,30.10,10.0,SW,3.5,-,N/A,,Overcast,230,2013-12-01 10:55:00
5:15 AM,42.8,37.6,82,30.10,10.0,SSW,4.6,-,N/A,,Overcast,210,2013-12-01 11:15:00
5:35 AM,41.0,36.3,83,30.09,10.0,SW,3.5,-,N/A,,Scattered Clouds,230,2013-12-01 11:35:00
5:55 AM,40.6,36.7,86,30.10,10.0,Calm,Calm,-,N/A,,Clear,0,2013-12-01 11:55:00
6:15 AM,40.5,36.5,86,30.10,10.0,Calm,Calm,-,N/A,,Clear,0,2013-12-01 12:15:00
6:35 AM,38.7,35.1,87,30.11,10.0,Calm,Calm,-,N/A,,Clear,0,2013-12-01 12:35:00
6:55 AM,36.3,34.5,93,30.12,10.0,Calm,Calm,-,N/A,,Clear,0,2013-12-01 12:55:00
7:15 AM,37.2,35.4,93,30.12,10.0,Calm,Calm,-,N/A,,Clear,0,2013-12-01 13:15:00
7:35 AM,37.2,34.9,91,30.12,10.0,Calm,Calm,-,N/A,,Clear,0,2013-12-01 13:35:00
7:55 AM,36.5,34.2,91,30.13,7.0,Calm,Calm,-,N/A,,Clear,0,2013-12-01 13:55:00
8:15 AM,40.3,37.4,89,30.13,10.0,Calm,Calm,-,N/A,,Clear,0,2013-12-01 14:15:00
8:35 AM,45.0,40.3,84,30.13,10.0,Calm,Calm,-,N/A,,Clear,0,2013-12-01 14:35:00
8:55 AM,46.6,40.3,79,30.13,10.0,West,3.5,-,N/A,,Clear,270,2013-12-01 14:55:00
9:15 AM,48.4,40.1,73,30.13,10.0,West,3.5,-,N/A,,Clear,280,2013-12-01 15:15:00
9:35 AM,49.1,39.7,70,30.13,10.0,Calm,Calm,-,N/A,,Clear,0,2013-12-01 15:35:00
9:55 AM,50.2,39.7,67,30.13,10.0,Calm,Calm,-,N/A,,Clear,0,2013-12-01 15:55:00
10:15 AM,50.9,39.7,66,30.12,10.0,Calm,Calm,-,N/A,,Clear,0,2013-12-01 16:15:00
10:35 AM,52.2,40.3,64,30.11,10.0,Calm,Calm,-,N/A,,Clear,0,2013-12-01 16:35:00
10:55 AM,53.1,40.3,62,30.10,10.0,Calm,Calm,-,N/A,,Clear,0,2013-12-01 16:55:00
11:15 AM,54.1,40.3,59,30.09,10.0,Calm,Calm,-,N/A,,Clear,0,2013-12-01 17:15:00
11:35 AM,55.4,40.3,57,30.08,7.0,NW,3.5,-,N/A,,Clear,310,2013-12-01 17:35:00
11:55 AM,55.8,40.3,56,30.07,10.0,WNW,5.8,-,N/A,,Clear,290,2013-12-01 17:55:00
12:15 PM,56.5,40.5,55,30.06,10.0,Calm,Calm,-,N/A,,Clear,0,2013-12-01 18:15:00
12:35 PM,57.4,41.0,54,30.05,10.0,West,3.5,-,N/A,,Clear,280,2013-12-01 18:35:00
12:55 PM,57.7,41.2,54,30.04,10.0,West,3.5,-,N/A,,Clear,280,2013-12-01 18:55:00
1:15 PM,58.3,41.4,53,30.03,10.0,West,4.6,-,N/A,,Clear,270,2013-12-01 19:15:00
1:35 PM,58.6,41.5,53,30.02,10.0,SW,5.8,-,N/A,,Clear,220,2013-12-01 19:35:00
1:55 PM,58.8,41.7,53,30.01,10.0,West,4.6,-,N/A,,Clear,280,2013-12-01 19:55:00
2:15 PM,58.6,41.2,52,30.01,10.0,Calm,Calm,-,N/A,,Clear,0,2013-12-01 20:15:00
2:35 PM,58.8,41.4,52,30.01,10.0,West,3.5,-,N/A,,Clear,280,2013-12-01 20:35:00
2:55 PM,58.6,41.0,52,30.00,10.0,WNW,4.6,-,N/A,,Clear,290,2013-12-01 20:55:00
3:15 PM,58.3,41.0,53,30.00,10.0,Calm,Calm,-,N/A,,Clear,0,2013-12-01 21:15:00
3:35 PM,57.7,40.8,53,29.99,10.0,Calm,Calm,-,N/A,,Clear,0,2013-12-01 21:35:00
3:55 PM,57.0,41.2,55,29.99,10.0,Calm,Calm,-,N/A,,Clear,0,2013-12-01 21:55:00
4:15 PM,55.2,40.5,58,29.98,10.0,Calm,Calm,-,N/A,,Clear,0,2013-12-01 22:15:00
4:35 PM,52.9,40.1,62,29.99,10.0,Calm,Calm,-,N/A,,Clear,0,2013-12-01 22:35:00
4:55 PM,53.1,40.5,62,29.99,10.0,Calm,Calm,-,N/A,,Clear,0,2013-12-01 22:55:00
5:15 PM,49.5,39.6,69,29.99,10.0,Calm,Calm,-,N/A,,Clear,0,2013-12-01 23:15:00
5:35 PM,45.3,38.5,77,29.99,10.0,Calm,Calm,-,N/A,,Clear,0,2013-12-01 23:35:00
5:55 PM,42.8,37.0,80,29.99,10.0,Calm,Calm,-,N/A,,Clear,0,2013-12-01 23:55:00
6:15 PM,42.1,37.6,84,29.99,7.0,Calm,Calm,-,N/A,,Clear,0,2013-12-02 00:15:00
6:35 PM,42.1,37.6,84,29.99,7.0,Calm,Calm,-,N/A,,Clear,0,2013-12-02 00:35:00
6:55 PM,41.0,37.0,86,29.99,7.0,Calm,Calm,-,N/A,,Clear,0,2013-12-02 00:55:00
7:15 PM,41.4,37.2,85,29.98,7.0,Calm,Calm,-,N/A,,Clear,0,2013-12-02 01:15:00
7:35 PM,37.6,34.2,87,29.98,7.0,Calm,Calm,-,N/A,,Clear,0,2013-12-02 01:35:00
7:55 PM,36.7,34.2,91,29.98,5.0,NNW,4.6,-,N/A,,Clear,340,2013-12-02 01:55:00
8:15 PM,38.3,36.1,92,29.98,7.0,Calm,Calm,-,N/A,,Clear,0,2013-12-02 02:15:00
8:35 PM,36.7,34.0,90,29.98,7.0,Calm,Calm,-,N/A,,Clear,0,2013-12-02 02:35:00
8:55 PM,38.7,36.0,90,29.98,7.0,Calm,Calm,-,N/A,,Clear,0,2013-12-02 02:55:00
9:15 PM,41.9,36.9,82,29.97,7.0,ENE,3.5,-,N/A,,Clear,70,2013-12-02 03:15:00
9:35 PM,43.0,36.9,79,29.96,10.0,ENE,3.5,-,N/A,,Clear,60,2013-12-02 03:35:00
9:55 PM,43.2,36.7,78,29.96,10.0,Calm,Calm,-,N/A,,Clear,0,2013-12-02 03:55:00
10:15 PM,41.9,36.9,82,29.95,7.0,Calm,Calm,-,N/A,,Clear,0,2013-12-02 04:15:00
10:35 PM,41.9,37.0,83,29.95,10.0,Calm,Calm,-,N/A,,Clear,0,2013-12-02 04:35:00
10:55 PM,42.6,37.0,81,29.95,10.0,Calm,Calm,-,N/A,,Clear,0,2013-12-02 04:55:00
11:15 PM,43.2,36.7,78,29.94,10.0,Calm,Calm,-,N/A,,Clear,0,2013-12-02 05:15:00
11:35 PM,43.2,36.3,77,29.93,10.0,Calm,Calm,-,N/A,,Clear,0,2013-12-02 05:35:00
11:55 PM,40.8,34.5,78,29.93,10.0,Calm,Calm,-,N/A,,Clear,0,2013-12-02 05:55:00